Date String (YYYY-MM-DD hh:mm:ss) UTC,Instrument flags,Ambient pressure (hPa),Sample flow (lpm),Bypass flow (lpm),Sample temperature (°C),Ambient temperature (°C),ASC tube jacket temperature (°C),LED temperature (°C),Box temperature (°C),Sample RH (%),Span deviation,Mass concentration (μg/m³),Mass concentration (μg/m³),Mass concentration (μg/m³)
DateTimeUTC,F1_M11,P_M11,Q1_M11,Q2_M11,T1_M11,T2_M11,T3_M11,T4_M11,T5_M11,U1_M11,ZSPAN_M11,X0_M11,X2_M11,X1_M11
2022-07-04 08:00:00,,0823.7,5.00,0.00,29.7,28.4,00.0,38.5,31.5,21.8,0000.0,0005.77,0002.66,0001.95
2022-07-04 08:01:00,,0823.7,5.00,0.00,29.7,28.5,00.0,38.5,31.6,21.8,0000.0,0005.69,0002.67,0001.94
2022-07-04 08:02:00,,0823.7,5.00,0.00,29.7,28.5,00.0,38.5,31.6,21.7,0000.0,0005.72,0002.66,0001.95
2022-07-04 08:03:00,,0823.7,5.00,0.00,29.7,28.6,00.0,38.5,31.6,21.6,0000.0,0006.48,0002.67,0001.97
2022-07-04 08:04:00,,0823.7,5.00,0.00,29.8,28.7,00.0,38.5,31.7,21.4,0000.0,0007.20,0002.66,0001.96
2022-07-04 08:05:00,,0823.7,5.01,0.00,29.8,28.7,00.0,38.6,31.7,21.2,0000.0,0007.38,0002.70,0001.97
2022-07-04 08:06:00,,0823.6,5.00,0.00,29.8,28.8,00.0,38.6,31.7,21.2,0000.0,0007.42,0002.71,0001.96
2022-07-04 08:07:00,,0823.7,5.00,0.00,29.8,28.8,00.0,38.6,31.7,21.1,0000.0,0006.40,0002.67,0001.94
2022-07-04 08:08:00,,0823.7,5.00,0.00,29.9,28.8,00.0,38.6,31.8,21.1,0000.0,0006.38,0002.65,0001.93
2022-07-04 08:09:00,,0823.7,5.00,0.00,29.9,28.9,00.0,38.6,31.8,21.2,0000.0,0006.40,0002.67,0001.92
2022-07-04 08:10:00,,0823.7,5.00,0.00,29.9,28.9,00.0,38.6,31.9,21.2,0000.0,0005.78,0002.62,0001.89
2022-07-04 08:11:00,,0823.7,5.00,0.00,29.9,28.9,00.0,38.6,31.9,21.9,0000.0,0005.90,0002.59,0001.87
2022-07-04 08:12:00,,0823.7,5.00,0.00,30.0,29.0,00.0,38.7,31.9,21.9,0000.0,0006.06,0002.60,0001.87
2022-07-04 08:13:00,,0823.7,5.01,0.00,30.0,28.5,00.0,38.6,31.8,21.9,0000.0,0006.23,0002.61,0001.86
2022-07-04 08:14:00,,0823.6,4.99,0.00,29.9,27.8,00.0,38.6,31.7,22.0,0000.0,0005.61,0002.59,0001.84
2022-07-04 08:15:00,,0823.6,5.01,0.00,29.9,27.5,00.0,38.6,31.6,22.2,0000.0,0004.84,0002.57,0001.83
2022-07-04 08:16:00,,0823.6,5.00,0.00,29.8,27.5,00.0,38.6,31.5,22.5,0000.0,0004.80,0002.59,0001.83
2022-07-04 08:17:00,,0823.5,5.00,0.00,29.7,27.6,00.0,38.5,31.4,22.4,0000.0,0004.79,0002.61,0001.83
2022-07-04 08:18:00,,0823.5,5.00,0.00,29.7,27.7,00.0,38.5,31.4,22.5,0000.0,0004.61,0002.57,0001.83
2022-07-04 08:19:00,,0823.5,5.00,0.00,29.7,27.8,00.0,38.5,31.4,22.4,0000.0,0004.67,0002.56,0001.84
2022-07-04 08:20:00,,0823.5,5.00,0.00,29.7,28.0,00.0,38.5,31.5,22.0,0000.0,0004.52,0002.50,0001.82
2022-07-04 08:21:00,,0823.5,5.00,0.00,29.7,28.1,00.0,38.5,31.5,22.0,0000.0,0004.49,0002.48,0001.81
2022-07-04 08:22:00,,0823.5,5.00,0.00,29.7,28.2,00.0,38.5,31.5,22.2,0000.0,0004.35,0002.46,0001.81
2022-07-04 08:23:00,,0823.5,5.00,0.00,29.7,28.3,00.0,38.5,31.6,22.5,0000.0,0003.98,0002.35,0001.79
2022-07-04 08:24:00,,0823.6,5.00,0.00,29.7,28.4,00.0,38.5,31.6,22.5,0000.0,0003.70,0002.31,0001.78
2022-07-04 08:25:00,,0823.6,5.00,0.00,29.7,28.5,00.0,38.5,31.6,22.5,0000.0,0003.57,0002.29,0001.76
2022-07-04 08:26:00,,0823.6,5.00,0.00,29.8,28.5,00.0,38.5,31.6,22.7,0000.0,0003.45,0002.27,0001.75
2022-07-04 08:27:00,,0823.5,4.99,0.00,29.8,28.6,00.0,38.5,31.7,22.6,0000.0,0003.41,0002.24,0001.74
2022-07-04 08:28:00,,0823.5,5.00,0.00,29.8,28.7,00.0,38.5,31.7,22.7,0000.0,0003.28,0002.20,0001.74
2022-07-04 08:29:00,,0823.4,5.00,0.00,29.8,28.7,00.0,38.6,31.7,22.7,0000.0,0003.59,0002.25,0001.75
2022-07-04 08:30:00,,0823.4,5.00,0.00,29.8,28.7,00.0,38.6,31.8,22.3,0000.0,0003.60,0002.26,0001.74
2022-07-04 08:31:00,,0823.5,5.00,0.00,29.9,28.8,00.0,38.6,31.7,22.5,0000.0,0003.76,0002.32,0001.77
2022-07-04 08:32:00,,0823.6,5.01,0.00,29.9,28.8,00.0,38.6,31.8,22.6,0000.0,0003.79,0002.34,0001.79
2022-07-04 08:33:00,,0823.6,5.00,0.00,29.9,28.9,00.0,38.6,31.8,22.5,0000.0,0003.94,0002.41,0001.81
2022-07-04 08:34:00,,0823.5,5.00,0.00,29.9,28.9,00.0,38.6,31.9,22.5,0000.0,0004.13,0002.48,0001.83
2022-07-04 08:35:00,,0823.6,5.00,0.00,29.9,28.9,00.0,38.7,31.9,22.5,0000.0,0004.21,0002.51,0001.85
2022-07-04 08:36:00,,0823.5,5.00,0.00,30.0,29.0,00.0,38.7,31.9,22.8,0000.0,0004.37,0002.56,0001.88
2022-07-04 08:37:00,,0823.5,5.00,0.00,30.0,29.0,00.0,38.7,31.9,23.2,0000.0,0004.36,0002.56,0001.91
2022-07-04 08:38:00,,0823.5,4.99,0.00,30.0,29.0,00.0,38.7,31.9,23.3,0000.0,0004.32,0002.59,0001.97
2022-07-04 08:39:00,,0823.4,5.00,0.00,30.0,28.2,00.0,38.7,31.9,23.1,0000.0,0004.52,0002.70,0002.04
2022-07-04 08:40:00,,0823.4,4.99,0.00,30.0,27.6,00.0,38.6,31.7,22.8,0000.0,0004.42,0002.75,0002.08
2022-07-04 08:41:00,,0823.4,5.01,0.00,29.9,27.5,00.0,38.6,31.6,22.8,0000.0,0004.35,0002.77,0002.11
2022-07-04 08:42:00,,0823.4,5.00,0.00,29.8,27.5,00.0,38.6,31.5,23.0,0000.0,0004.25,0002.77,0002.13
2022-07-04 08:43:00,,0823.4,4.99,0.00,29.8,27.6,00.0,38.6,31.5,23.0,0000.0,0004.49,0002.88,0002.17
2022-07-04 08:44:00,,0823.4,5.00,0.00,29.7,27.8,00.0,38.6,31.5,23.0,0000.0,0004.64,0002.93,0002.19
2022-07-04 08:45:00,,0823.4,5.01,0.00,29.7,27.9,00.0,38.6,31.5,23.0,0000.0,0004.62,0002.95,0002.22
2022-07-04 08:46:00,,0823.4,5.01,0.00,29.7,28.1,00.0,38.5,31.5,23.1,0000.0,0004.69,0002.96,0002.23
2022-07-04 08:47:00,,0823.5,5.00,0.00,29.7,28.2,00.0,38.5,31.6,23.1,0000.0,0004.67,0002.96,0002.24
2022-07-04 08:48:00,,0823.6,5.01,0.00,29.7,28.3,00.0,38.5,31.6,23.1,0000.0,0004.60,0002.97,0002.26
2022-07-04 08:49:00,,0823.6,5.00,0.00,29.7,28.4,00.0,38.5,31.6,23.1,0000.0,0004.77,0003.04,0002.25
2022-07-04 08:50:00,,0823.7,5.01,0.00,29.8,28.5,00.0,38.6,31.7,23.1,0000.0,0004.76,0003.00,0002.22
2022-07-04 08:51:00,,0823.6,5.00,0.00,29.8,28.6,00.0,38.6,31.7,23.4,0000.0,0004.58,0002.93,0002.20
2022-07-04 08:52:00,,0823.6,5.00,0.00,29.8,28.6,00.0,38.6,31.7,23.3,0000.0,0004.82,0002.97,0002.23
2022-07-04 08:53:00,,0823.7,5.01,0.00,29.8,28.7,00.0,38.6,31.7,23.1,0000.0,0005.33,0003.01,0002.25
2022-07-04 08:54:00,,0823.6,5.00,0.00,29.8,28.7,00.0,38.6,31.7,23.1,0000.0,0005.52,0003.02,0002.26
2022-07-04 08:55:00,,0823.6,4.99,0.00,29.8,28.8,00.0,38.6,31.8,23.2,0000.0,0005.43,0003.01,0002.29
2022-07-04 08:56:00,,0823.6,5.00,0.00,29.9,28.8,00.0,38.6,31.7,23.2,0000.0,0005.54,0003.06,0002.33
2022-07-04 08:57:00,,0823.6,5.02,0.00,29.9,28.8,00.0,38.6,31.8,23.2,0000.0,0005.58,0003.11,0002.37
2022-07-04 08:58:00,,0823.6,4.99,0.00,29.9,28.9,00.0,38.6,31.8,23.2,0000.0,0005.48,0003.11,0002.42
2022-07-04 08:59:00,,0823.6,4.99,0.00,29.9,28.9,00.0,38.7,31.9,23.2,0000.0,0005.55,0003.15,0002.48
